Lid_Strength_Index
2 2 3 3 3 3 2 3 3 3 2 2 1 0 -0 -1 -1 -0 3 1 4 7 6 6 6 7 7 7 10 10 9 10 10 12 13 13 13 12 13 12 12 13 14 15 14 16 18 8 8 12 9 8 8 8
2 2 2 2 2 2 2 2 2 3 2 1 1 -0 0 -1 -1 -1 3 1 1 4 6 4 4 4 4 5 6 8 8 8 8 10 10 9 12 10 12 15 10 13 11 12 12 13 8 7 8 6 7 8 8 8
-0 -0 -1 -1 -0 1 2 2 2 2 2 2 1 -0 -0 -1 -1 -0 3 2 2 6 7 6 7 4 3 3 3 8 7 6 7 5 8 9 12 9 13 12 11 9 8 11 10 9 8 7 6 6 6 7 6 6
-1 -1 -1 -1 -1 -1 -0 -0 1 2 2 1 0 -0 0 -1 -1 -1 3 1 3 5 9 8 5 5 3 3 3 3 5 4 5 5 8 10 11 8 11 10 11 9 9 10 10 9 8 7 6 5 5 5 5 5
-1 -1 -1 -1 -1 -1 -1 -1 -1 0 1 1 0 0 1 -1 -1 -0 2 1 1 4 8 8 7 4 4 4 4 4 4 5 7 9 10 11 8 9 9 9 11 9 10 11 11 8 8 8 6 5 5 6 5 5
-1 -1 -1 -1 -1 -1 -1 -1 -1 -0 0 0 -0 0 1 -1 -1 3 7 2 1 2 7 10 6 7 5 5 5 5 5 6 7 8 9 8 6 8 11 12 9 8 6 6 8 6 6 6 5 4 5 5 5 6
-1 -1 -1 -1 -1 -1 -1 -1 -1 -1 -0 -0 1 0 1 -0 1 4 6 3 0 2 7 10 9 8 6 5 5 6 5 6 7 8 9 8 8 7 10 13 10 8 7 7 6 6 7 6 7 5 6 6 7 8
-1 -1 -1 -1 -1 -1 -1 -1 -1 -1 -1 -1 -0 0 1 -0 0 4 2 0 1 5 6 10 11 10 6 8 9 6 8 7 7 8 8 9 8 8 12 10 9 8 7 7 7 6 6 6 6 7 7 8 9 9
-0 -0 -0 -0 -0 -0 -0 -1 -1 -1 -1 -1 0 1 1 3 7 6 1 -0 2 5 10 10 12 12 7 8 7 8 7 11 7 10 10 9 11 13 11 10 9 8 9 9 10 10 9 9 8 8 8 8 9 8
-0 -0 -0 0 -0 -0 -0 -0 -1 -1 -0 0 3 5 8 6 1 1 5 7 7 8 8 10 8 12 8 8 9 9 8 10 12 10 8 10 12 9 9 9 16 16 16 16 15 12 12 12 11 10 10 9 8 9
-0 0 0 1 0 -0 -0 -0 -0 -0 1 5 8 8 5 1 5 7 10 10 10 11 9 10 8 11 7 10 10 8 10 9 13 11 11 12 13 10 18 18 19 19 18 18 18 18 17 16 16 15 14 10 10 11
0 0 0 1 0 0 0 0 0 2 5 5 6 5 6 8 9 12 14 12 12 13 11 10 10 7 8 7 8 10 11 11 15 10 12 15 12 21 23 23 22 22 22 22 20 20 19 19 19 19 17 14 14 14
0 0 0 0 -0 1 1 1 1 1 2 5 7 9 10 12 14 15 17 16 15 13 11 10 11 9 9 8 9 11 13 14 11 14 15 13 22 24 26 25 25 24 23 23 22 21 21 22 23 22 20 20 18 19
0 1 0 0 -0 0 1 2 2 3 5 9 11 15 13 15 14 14 12 13 16 12 11 9 11 10 9 10 10 13 11 12 15 16 16 17 26 27 26 25 26 26 26 25 24 23 23 24 24 24 23 21 21 22
-0 -0 0 0 0 1 2 4 6 11 12 14 11 16 17 21 22 22 20 18 21 17 12 12 11 9 10 11 10 11 15 16 14 14 19 24 27 27 27 27 27 26 26 26 25 25 25 25 26 26 25 24 24 25
1 1 2 1 1 2 4 7 11 12 20 20 24 19 20 18 21 20 20 22 21 18 16 12 12 12 12 11 12 13 14 15 14 24 25 25 27 27 27 27 27 26 26 26 26 26 26 27 27 28 28 28 26 26
2 4 2 2 4 5 6 12 14 20 22 22 26 26 24 23 24 26 23 23 21 18 14 13 16 15 13 14 14 16 14 24 27 26 26 26 27 28 28 27 27 27 27 27 26 26 26 26 26 28 30 29 28 28
7 5 3 3 5 8 13 13 18 21 25 25 25 27 26 25 25 25 25 23 22 19 17 15 15 15 15 16 14 23 25 25 25 26 26 26 26 27 27 28 27 27 27 27 27 26 26 27 28 29 28 27 28 28
5 5 5 5 7 12 15 17 16 24 25 24 24 24 25 26 26 25 25 23 23 22 19 19 17 16 18 24 25 26 26 27 27 26 25 25 26 28 27 27 27 27 28 28 27 28 28 28 27 26 26 26 27 27
6 6 6 7 8 13 18 19 16 21 23 24 23 25 26 26 26 26 26 25 24 23 23 23 24 28 27 28 27 28 28 27 27 27 25 25 26 26 27 27 27 26 27 27 27 26 27 28 28 28 27 27 28 29
10 10 10 12 16 17 20 20 21 21 22 24 23 23 26 25 28 28 27 26 26 29 28 30 29 29 29 29 28 28 28 27 27 26 26 27 26 27 27 27 27 27 27 28 29 29 29 30 29 28 29 29 28 28
15 12 16 15 17 19 22 22 21 20 22 24 24 24 26 26 28 28 26 27 30 31 30 30 30 30 29 30 30 29 29 30 27 26 26 26 27 28 29 28 28 29 29 29 29 30 30 29 28 28 29 29 29 29
16 17 21 22 21 22 26 22 23 24 24 25 25 27 29 28 28 25 30 31 30 29 29 30 30 32 31 31 32 31 31 30 28 28 28 28 28 28 29 29 28 29 30 30 29 29 30 29 29 29 28 29 29 29
20 28 30 30 27 29 27 29 26 26 25 26 27 28 30 29 26 28 30 31 30 29 30 31 30 29 29 32 30 31 30 28 28 28 28 28 30 30 29 30 30 30 30 29 29 30 30 30 29 29 29 30 30 30
24 36 31 35 31 31 32 32 32 28 31 32 30 30 30 28 29 31 31 31 30 30 30 30 30 29 30 30 29 30 31 28 28 30 29 29 30 30 30 30 31 31 30 29 30 30 30 30 30 30 30 31 31 31
38 37 35 36 35 34 35 34 36 35 34 33 34 32 30 29 30 29 32 31 31 31 31 31 31 30 30 30 30 29 30 30 27 29 29 28 28 27 28 29 29 31 31 30 30 31 31 31 31 32 31 32 32 33
38 38 35 34 34 34 35 35 35 34 36 36 36 34 32 33 31 32 31 30 30 31 30 30 31 30 30 30 30 31 30 30 30 29 29 29 29 29 28 28 28 30 31 31 31 32 32 32 32 32 32 32 32 33
35 34 38 37 37 38 40 39 39 39 37 36 37 36 35 33 33 32 30 29 30 31 32 32 31 31 30 30 30 30 30 30 30 29 29 29 29 29 30 30 29 28 31 31 31 32 33 33 33 33 33 33 34 33
35 34 34 41 39 36 38 38 38 36 35 36 36 35 35 33 32 32 30 30 30 31 32 32 32 32 31 31 31 31 30 30 30 32 30 28 28 29 30 30 30 30 31 32 31 28 29 30 31 31 32 33 33 33
35 34 36 40 40 37 34 35 36 36 36 34 34 33 33 33 32 32 32 33 32 32 32 32 32 33 32 32 32 31 31 30 30 29 29 28 28 29 29 30 30 30 31 33 33 33 31 31 33 35 34 35 35 35
32 35 35 34 35 33 33 34 35 35 35 34 34 35 34 33 31 31 32 32 33 35 35 35 35 35 35 33 33 33 32 31 33 32 30 30 30 30 30 30 30 31 33 34 35 35 35 36 36 37 37 37 37 36
34 36 35 36 34 34 35 35 34 35 34 35 35 35 35 34 33 29 30 32 34 34 33 32 35 33 33 32 33 33 32 34 33 32 33 31 31 31 31 32 34 36 36 36 36 37 37 38 37 37 36 36 36 36
38 37 38 37 36 35 37 39 35 36 35 35 35 37 35 34 32 29 30 30 30 30 30 30 30 31 32 34 33 32 32 33 33 29 27 28 29 30 32 34 35 36 37 36 35 35 36 36 36 36 35 35 35 34